www.pogodaiklimat.ru

Погода и климат >> Архив погоды >> Россия >> Алтайский край >> Алейская


ПОГОДА в Алейской

  • Прогноз погоды в Алейской
  • Монитор погоды в Алейской
  • Климат города

АРХИВ ПОГОДЫ в Алейской

Время (UTC), дата Ветер
(напр.,м/с)
 
Видим.   Явления Облачность Т
(С)
Тd
(С)
f
(%)
Тe
(С)
Тes
(С)
Комфортность P
(гПа)
Po
(гПа)
Тmin
(С)
Tmax
(С)
R
(мм)
R24
(мм)
S
(см)
18 12.09 Ю 6-13
{14}
4000 м слабый ливневой дождь 10/10 600 м
[Cb cap]
+7.2 +5.6 90 +3 +3 1009.5 988.3
21 12.09 Ю 6-12
{15}
4000 м слабый ливневой дождь 10/10 600 м
[Cb cap]
+6.1 +4.3 88 +1 +1 1011.9 990.5
00 13.09 Ю 5
{13}
4000 м ливневой дождь 10/10 600 м
[Cb cap]
+6.5 +5.2 91 +2 +2 1014.2 992.8 +6.0 21.2
03 13.09 ЮЗ 3
{10}
10 км осадки на расстоянии {ливн. осадки} 10/6 300 м
[Cb cap Ac As Ci sp]
+8.7 +6.8 88 +6 +7 1018.4 997.1
06 13.09 ЮЗ 2 4000 м ливневой дождь 10/10 300 м
[Cb cap]
+8.6 +6.4 86 +7 +7 1022.2 1000.8
09 13.09 ЮЗ 2 4000 м слабый ливневой дождь 10/10 600 м
[Cb cap]
+9.5 +6.2 80 +8 +8 1024.7 1003.3
12 13.09 ЮЗ 1 10 км {ливн. осадки} 10/10 1000 м
[Sc]
+9.3 +5.4 77 +9 +9 1026.5 1005.0 +9.8 3
15 13.09 ЮЗ 1 10 км 10/10 600 м
[Sc]
+8.2 +3.5 72 +8 +8 1028.0 1006.4
18 13.09 Ю 1 10 км 10/10 600 м
[Sc]
+7.0 +5.3 89 +6 +6 1028.1 1006.5
21 13.09 Ю 1 10 км 10/10 600 м
[Sc]
+6.8 +5.2 90 +6 +6 1028.1 1006.4
00 14.09 Ю 1 10 км 10/10 600 м
[Sc]
+6.7 +5.0 89 +6 +6 1028.3 1006.6 +6.4
03 14.09 Ю 2 20 км 10/10 600 м
[Sc]
+8.1 +5.8 85 +6 +6 1028.8 1007.2
06 14.09 Ю 2 50 км 10/10 600 м
[Cu Sc]
+12.1 +3.7 56 +11 +11 1028.0 1006.7
09 14.09 Ю 2 50 км 10/10 600 м
[Sc]
+12.8 +2.7 50 +12 +12 1026.9 1005.7
12 14.09 Ю 1 50 км 8/4 600 м
[Sc Ac trans Ci fib]
+12.2 +3.1 54 +12 +13 1026.0 1004.8 +13.7
15 14.09 Ю 1 50 км ясно +6.2 +4.4 88 +5 +5 1026.4 1004.7
18 14.09 Ю 1 50 км 8/8 1000 м
[Sc]
+6.6 +4.0 83 +6 +6 1025.5 1003.9
21 14.09 Ю 2 50 км 5/0
[Ac trans]
+6.7 +3.4 79 +5 +5 1024.9 1003.3
00 15.09 Ю 1 50 км 8/3 600 м
[Sc Ac trans]
+4.7 +3.0 89 +3 +3 1024.8 1003.0 +4.1
03 15.09 Ю 3 50 км 8/0
[Ac trans Ci sp]
+9.5 +4.4 70 +7 +9 1024.1 1002.7
06 15.09 Ю 4 50 км 3/0
[Ac trans]
+17.6 +3.4 39 +17 +22 1022.1 1001.3
09 15.09 Ю 5-10
{11}
50 км 3/0
[Cc]
+20.2 +3.8 34 +21 +23 комфорт 1020.3 999.7
12 15.09 Ю 3
{10}
50 км 3/0
[Ci fib]
+18.7 +4.4 39 +19 +19 1019.1 998.4 +20.6
15 15.09 Ю 2 50 км ясно +13.3 +4.7 56 +13 +13 1019.2 998.2
18 15.09 Ю 2 50 км ясно +10.3 +3.7 64 +9 +9 1018.5 997.3
21 15.09 Ю 2 50 км ясно +8.3 +3.6 72 +7 +7 1017.8 996.4
00 16.09 Ю 3 50 км ясно +7.7 +3.3 74 +5 +5 1016.9 995.5 +6.8
03 16.09 Ю 4
{10}
50 км 8/0
[Cs]
+14.1 +4.1 51 +13 +15 1016.5 995.6
06 16.09 Ю 5-10
{12}
50 км 8/0
[Cs]
+21.2 +5.9 37 +22 +25 комфорт 1014.7 994.4
09 16.09 Ю 5
{13}
50 км 9/0
[Cs]
+24.2 +6.7 32 +24 +27 комфорт 1013.6 993.5
12 16.09 ЮЗ 2
{12}
50 км 9/6 600 м
[Sc Cs]
+22.8 +9.1 42 +24 +24 комфорт 1013.7 993.5 +24.5
15 16.09 ЮЗ 1 50 км 4/0
[Cs]
+15.4 +10.5 73 +16 +16 1015.5 994.7
18 16.09 З 1 50 км ясно +10.2 +8.8 91 +10 +10 1017.0 995.8
21 16.09 Ю 2 50 км ясно +9.1 +8.0 93 +7 +7 1017.9 996.6
00 17.09 Ю 1 4000 м дымка ясно +6.0 +4.9 93 +5 +5 1019.3 997.7 +6.0
03 17.09 ЮВ 1 4000 м дымка ясно +14.1 +10.1 77 +14 +18 1019.6 998.7 +5.8
06 17.09 Ю 2 50 км ясно +21.3 +7.5 41 +22 +30 комфорт 1018.6 998.2
09 17.09 Ю 2 50 км ясно +23.3 +7.8 37 +24 +30 комфорт 1016.7 996.4
12 17.09 Ю 2 50 км ясно +21.7 +8.6 43 +23 +23 комфорт 1015.2 994.9 +23.7
15 17.09 Ю 1 50 км ясно +15.7 +8.7 63 +16 +16 1014.8 994.1
18 17.09 Ю 2 50 км ясно +13.3 +8.1 71 +13 +13 1013.7 992.8
21 17.09 ЮЗ 2 50 км ясно +12.1 +7.3 72 +11 +11 1012.1 991.2
00 18.09 Ю 3 50 км 3/0
[Ac cast]
+12.3 +7.6 73 +11 +11 1011.6 990.7 +10.4
03 18.09 Ю 4 50 км 8/4 600 м
[Sc Ac trans]
+17.0 +8.3 57 +17 +17 1011.7 991.1
06 18.09 ЮЗ 1 50 км 10/6 600 м
[Sc Ac lent]
+21.0 +9.0 46 +24 +24 комфорт 1011.6 991.3
09 18.09 ЮЗ 2 50 км {ливн. осадки} 10/8 600 м
[Sc Ci]
+19.9 +12.1 61 +22 +23 комфорт 1011.0 990.7
12 18.09 штиль 0 4000 м гроза, ливневой дождь 10/10 600 м
[Cb cap]
+18.4 +12.9 70 +19 +19 1010.0 989.6 +21.3 0.0
15 18.09 штиль 0 10 км зарница {ливн. осадки} 8/3 600 м
[Cb cap Ac trans]
+14.7 +12.8 88 +14 +14 1009.9 989.2
18 18.09 СЗ 2
{10}
10 км в посл. час гроза {ливн. осадки} 10/5 600 м
[Cb cap Ac trans]
+11.6 +10.1 91 +10 +10 1009.9 989.0
21 18.09 ЮЗ 1 10 км {ливн. осадки} 4/4 600 м
[Sc]
+11.8 +9.9 88 +12 +12 1010.8 989.9
00 19.09 ЮЗ 2 10 км {ливн. осадки} 3/3 600 м
[Sc]
+9.1 +7.5 90 +7 +7 1012.2 991.0 +8.8 6
03 19.09 Ю 2 10 км 8/0
[Ac As Ci]
+12.3 +8.8 79 +11 +14 1012.9 992.0 +7.9
06 19.09 Ю 3 20 км 8/4 600 м
[Cu Sc Ac As Ci fib]
+14.2 +6.9 61 +13 +16 1013.5 992.7
09 19.09 ЮЗ 3
{13}
4000 м ливневой дождь 9/8 600 м
[Cb cap Ci sp]
+11.4 +7.0 74 +10 +11 1014.0 992.9
12 19.09 З 2 10 км осадки на расстоянии {ливн. осадки} 8/8 1000 м
[Cb cap]
+12.4 +6.4 67 +12 +12 1015.5 994.5 +16.6 2

 

Местоположение метеостанции Алейская (Алтайский край, Россия): широта 52.52 долгота 82.77 высота над уровнем моря 176 м.

В архиве по умолчанию представлена погода в Алейской за последнюю неделю. Архивные данные за месяц целиком и за предыдущие месяцы, начиная с января 2011 года, Вы можете получить, выбрав интересующий диапазон дат из раскрывающегося списка и нажав кнопку "Ввод!".

Внимание! Время в таблицах - всемирное. Для получения местного времени необходимо прибавить поправку, которая в Алейской равна 7 ч.

Смотрите также архив погоды в соседних городах и на ближайших метеорологических станциях:

Погода в Шипуново (Алтайский край, Россия) (51 км)
Погода в Усть-Калманке (Алтайский край, Россия) (61 км)
Погода в Усть-Чарышской Пристани (Алтайский край, Россия) (63 км)
Погода в Ребрихе (Алтайский край, Россия) (69 км)
Погода в Мамонтово (Алтайский край, Россия) (80 км)
Погода в Поспелихе (Алтайский край, Россия) (86 км)
Погода в Краснощеково (Алтайский край, Россия) (95 км)
Погода в Шелаболихе (Алтайский край, Россия) (101 км)
Погода в Барнауле (Алтайский край, Россия) (113 км)
Погода в Троицком (Алтайский край, Россия) (138 км)

Пояснения к столбцам:

Ветер - указаны скорость ветра в м/с - средняя за 10 мин, порывы в срок и между сроками (в фигурных скобках) и направление, откуда дует ветер: С - северный, СВ - северо-восточный, В - восточный, ЮВ - юго-восточный, Ю - южный, ЮЗ - юго-западный, З - западный, СЗ - северо-западный.
Видимость - горизонтальная дальность видимости в метрах или километрах. При видимости от 1 до 10 км при отсутствии осадков обычно наблюдается дымка, при ухудшении видимости до 1 км и менее - туман. В сухую погоду видимость может ухудшаться дымом, пылью или мглою.
Явления - указаны атмосферные явления, наблюдавшиеся в срок или в последний час перед сроком; фигурными скобками обозначены явления, наблюдавшиеся между сроками (за 1-3 часа до срока); квадратными скобками обозначены град или гололедные отложения с указанием их диаметра в мм.
Облачность - указаны через наклонную черту общая и нижняя облачность в баллах и высота нижней границы облаков в метрах; квадратными скобками обозначены формы облаков: Ci - перистые, Cs - перисто-слоистые, Cc - перисто-кучевые, Ac - высококучевые, As - высокослоистые, Sc - слоисто-кучевые, Ns - слоисто-дождевые, Cu - кучевые, Cb - кучево-дождевые. Подробнее классификацию облаков см. в Атласе облаков (PDF).
T - Температура воздуха - температура, измеренная на высоте 2 м над землей.
Td - Температура точки росы - температура, при понижении до которой содержащийся в воздухе водяной пар достигнет насыщения.
f - Относительная влажность воздуха - влажноcть воздуха, измеренная на высоте 2 м над землей.
Te - Эффективная температура - температура, которую ощущает одетый по сезону человек в тени. Характеристика душности погоды. При расчете учитывается влияние влажности воздуха и скорости ветра на теплоощущения человека.
Tes - Эффективная температура на солнце - температура, которую ощущает человек, с поправкой на солнечный нагрев. Характеристика знойности погоды. Зависит от высоты солнца над горизонтом, облачности и скорости ветра. Ночью, в пасмурную погоду, а также при ветре 12 м/с и более поправка равна нулю.
P - Атмосферное давление - приведенное к уровню моря атмосферное давление.
Po - Атмосферное давление - измеренное на уровне метеостанции атмосферное давление.
Tmin - Минимальная температура - минимум температуры воздуха на высоте 2 м над землей.
Tmax - Максимальная температура - максимум температуры воздуха на высоте 2 м над землей.
R - Количество осадков - Количество выпавших осадков за период времени, мм. При наведении курсора мыши на число - период времени, за который выпало указанное количество осадков.
R24 - Количество осадков - Количество выпавших осадков за 24 часа, мм.
S - Снежный покров - Высота снежного покрова, см. При наведении курсора мыши на число - состояние снежного покрова и степень покрытия местности в баллах.